When you browse on this site, cookies collect data to enhance your experience and personalize the content and advertising you see.
Visit our Privacy Policy to learn more. By continuing to use the site, you agree to this use of cookies and data.

Stündliche Wetter Cayo de Willy

Heute, 4 Juli, Samstag

Zeit Temperatur Niederschläge Wind Luftdruck Luftfeuchtigkeit
00:00 +27°C° 0 mm 1 m/S 761 mmHg 93%
01:00 +26°C° 0 mm 1 m/S 760 mmHg 93%
02:00 +26°C° 0 mm 1 m/S 760 mmHg 94%
03:00 +26°C° 0 mm 1 m/S 760 mmHg 94%
04:00 +26°C° 0 mm 1 m/S 760 mmHg 94%
05:00 +27°C° 0 mm 1 m/S 760 mmHg 90%
06:00 +28°C° 0 mm 1 m/S 760 mmHg 87%
07:00 +28°C° 0 mm 1 m/S 761 mmHg 83%
08:00 +30°C° 0 mm 1 m/S 761 mmHg 76%
09:00 +32°C° 0 mm 1 m/S 761 mmHg 68%
10:00 +33°C° 0 mm 1 m/S 761 mmHg 61%
11:00 +34°C° 0 mm 1 m/S 761 mmHg 60%
12:00 +35°C° 0 mm 2 m/S 761 mmHg 59%
13:00 +36°C° 0 mm 2 m/S 761 mmHg 58%
14:00 +35°C° 0.2 mm 2 m/S 760 mmHg 62%
15:00 +34°C° 0.2 mm 2 m/S 760 mmHg 67%
16:00 +33°C° 0.2 mm 3 m/S 759 mmHg 71%
17:00 +31°C° 0.1 mm 2 m/S 760 mmHg 77%
18:00 +30°C° 0.1 mm 2 m/S 760 mmHg 82%
19:00 +28°C° 0.1 mm 2 m/S 760 mmHg 88%
20:00 +28°C° 0 mm 2 m/S 761 mmHg 89%
21:00 +28°C° 0 mm 1 m/S 761 mmHg 91%
22:00 +27°C° 0 mm 1 m/S 761 mmHg 92%
23:00 +27°C° 0.1 mm 1 m/S 761 mmHg 93%

Morgen, 5 Juli, Sonntag

Zeit Temperatur Niederschläge Wind Luftdruck Luftfeuchtigkeit
00:00 +27°C° 0.1 mm 1 m/S 761 mmHg 93%
01:00 +27°C° 0.1 mm 1 m/S 760 mmHg 94%
02:00 +26°C° 0.3 mm 1 m/S 760 mmHg 94%
03:00 +26°C° 0.3 mm 1 m/S 760 mmHg 94%
04:00 +26°C° 0.3 mm 1 m/S 760 mmHg 95%
05:00 +27°C° 0 mm 1 m/S 761 mmHg 91%
06:00 +28°C° 0 mm 1 m/S 761 mmHg 88%
07:00 +29°C° 0 mm 1 m/S 761 mmHg 85%
08:00 +30°C° 0 mm 1 m/S 762 mmHg 77%
09:00 +32°C° 0 mm 2 m/S 762 mmHg 68%
10:00 +34°C° 0 mm 2 m/S 762 mmHg 60%
11:00 +34°C° 0.4 mm 2 m/S 762 mmHg 63%
12:00 +33°C° 0.4 mm 3 m/S 761 mmHg 66%
13:00 +33°C° 0.4 mm 3 m/S 761 mmHg 70%
14:00 +33°C° 0.4 mm 3 m/S 761 mmHg 72%
15:00 +31°C° 0.4 mm 3 m/S 760 mmHg 74%
16:00 +31°C° 0.4 mm 3 m/S 760 mmHg 76%
17:00 +30°C° 0.1 mm 3 m/S 760 mmHg 80%
18:00 +29°C° 0.1 mm 2 m/S 761 mmHg 84%
19:00 +28°C° 0.1 mm 2 m/S 761 mmHg 88%
20:00 +28°C° 0 mm 2 m/S 761 mmHg 88%
21:00 +27°C° 0 mm 2 m/S 762 mmHg 89%
22:00 +27°C° 0 mm 2 m/S 762 mmHg 90%
23:00 +27°C° 0.9 mm 2 m/S 762 mmHg 91%

übermorgen, 6 Juli, Montag

Zeit Temperatur Niederschläge Wind Luftdruck Luftfeuchtigkeit
00:00 +27°C° 0.9 mm 2 m/S 762 mmHg 92%
01:00 +26°C° 0.9 mm 2 m/S 761 mmHg 94%
02:00 +26°C° 0.3 mm 2 m/S 761 mmHg 94%
03:00 +26°C° 0.3 mm 2 m/S 761 mmHg 93%
04:00 +26°C° 0.3 mm 2 m/S 761 mmHg 93%
05:00 +27°C° 0 mm 2 m/S 761 mmHg 91%
06:00 +28°C° 0 mm 2 m/S 762 mmHg 89%
07:00 +28°C° 0 mm 1 m/S 762 mmHg 86%
08:00 +30°C° 0 mm 2 m/S 762 mmHg 77%
09:00 +31°C° 0 mm 2 m/S 762 mmHg 68%
10:00 +34°C° 0 mm 2 m/S 763 mmHg 59%
11:00 +34°C° 0 mm 3 m/S 762 mmHg 59%
12:00 +34°C° 0 mm 3 m/S 762 mmHg 58%
13:00 +34°C° 0 mm 3 m/S 762 mmHg 58%
14:00 +34°C° 0.1 mm 3 m/S 761 mmHg 62%
15:00 +33°C° 0.1 mm 3 m/S 761 mmHg 65%
16:00 +33°C° 0.1 mm 3 m/S 761 mmHg 68%
17:00 +31°C° 0.1 mm 3 m/S 761 mmHg 75%
18:00 +29°C° 0.1 mm 3 m/S 762 mmHg 82%
19:00 +28°C° 0.1 mm 3 m/S 762 mmHg 89%
20:00 +28°C° 0 mm 3 m/S 762 mmHg 90%
21:00 +28°C° 0 mm 2 m/S 762 mmHg 91%
22:00 +28°C° 0 mm 2 m/S 762 mmHg 92%
23:00 +27°C° 0.2 mm 2 m/S 762 mmHg 92%

7 Juli, Dienstag

Zeit Temperatur Niederschläge Wind Luftdruck Luftfeuchtigkeit
00:00 +27°C° 0.2 mm 2 m/S 762 mmHg 93%
01:00 +27°C° 0.2 mm 2 m/S 761 mmHg 94%
02:00 +27°C° 0.4 mm 2 m/S 761 mmHg 94%
03:00 +27°C° 0.4 mm 1 m/S 761 mmHg 94%
04:00 +27°C° 0.4 mm 1 m/S 761 mmHg 94%
05:00 +28°C° 0.9 mm 1 m/S 761 mmHg 92%
06:00 +28°C° 0.9 mm 1 m/S 761 mmHg 89%
07:00 +29°C° 0.9 mm 2 m/S 762 mmHg 87%
08:00 +30°C° 0.5 mm 2 m/S 762 mmHg 83%
09:00 +31°C° 0.5 mm 2 m/S 762 mmHg 80%
10:00 +31°C° 0.5 mm 2 m/S 762 mmHg 76%
11:00 +31°C° 0.5 mm 3 m/S 762 mmHg 76%
12:00 +33°C° 0.5 mm 3 m/S 762 mmHg 75%
13:00 +33°C° 0.5 mm 3 m/S 761 mmHg 75%
14:00 +33°C° 0.1 mm 3 m/S 761 mmHg 74%
15:00 +33°C° 0.1 mm 3 m/S 761 mmHg 72%
16:00 +31°C° 0.1 mm 3 m/S 760 mmHg 71%
17:00 +30°C° 0 mm 3 m/S 760 mmHg 77%
18:00 +29°C° 0 mm 2 m/S 761 mmHg 83%
19:00 +28°C° 0 mm 2 m/S 761 mmHg 89%
20:00 +28°C° 0 mm 2 m/S 761 mmHg 90%
21:00 +28°C° 0 mm 2 m/S 761 mmHg 92%
22:00 +27°C° 0 mm 2 m/S 762 mmHg 93%
23:00 +27°C° 0.1 mm 2 m/S 761 mmHg 93%

8 Juli, Mittwoch

Zeit Temperatur Niederschläge Wind Luftdruck Luftfeuchtigkeit
00:00 +27°C° 0.1 mm 2 m/S 761 mmHg 93%
01:00 +27°C° 0.1 mm 2 m/S 761 mmHg 93%
02:00 +27°C° 0.1 mm 2 m/S 761 mmHg 93%
03:00 +27°C° 0.1 mm 2 m/S 761 mmHg 94%
04:00 +27°C° 0.1 mm 2 m/S 760 mmHg 94%
05:00 +28°C° 0.1 mm 2 m/S 761 mmHg 91%
06:00 +28°C° 0.1 mm 2 m/S 761 mmHg 88%
07:00 +29°C° 0.1 mm 2 m/S 761 mmHg 85%
08:00 +30°C° 0.2 mm 2 m/S 761 mmHg 80%
09:00 +31°C° 0.2 mm 3 m/S 761 mmHg 75%
10:00 +33°C° 0.2 mm 3 m/S 761 mmHg 69%
11:00 +33°C° 0.4 mm 3 m/S 761 mmHg 67%
12:00 +34°C° 0.4 mm 3 m/S 761 mmHg 66%
13:00 +34°C° 0.4 mm 3 m/S 760 mmHg 64%
14:00 +33°C° 0.3 mm 3 m/S 760 mmHg 66%
15:00 +33°C° 0.3 mm 3 m/S 760 mmHg 69%
16:00 +31°C° 0.3 mm 3 m/S 759 mmHg 71%
17:00 +30°C° 0.3 mm 3 m/S 759 mmHg 76%
18:00 +29°C° 0.3 mm 2 m/S 760 mmHg 82%
19:00 +28°C° 0.3 mm 2 m/S 760 mmHg 87%
20:00 +28°C° 0.2 mm 1 m/S 760 mmHg 89%
21:00 +27°C° 0.2 mm 1 m/S 761 mmHg 90%
22:00 +27°C° 0.2 mm 1 m/S 761 mmHg 91%
23:00 +27°C° 0 mm 1 m/S 761 mmHg 91%

9 Juli, Donnerstag

Zeit Temperatur Niederschläge Wind Luftdruck Luftfeuchtigkeit
00:00 +27°C° 0 mm 1 m/S 761 mmHg 91%
01:00 +26°C° 0 mm 1 m/S 760 mmHg 91%
02:00 +26°C° 0 mm 1 m/S 760 mmHg 92%
03:00 +26°C° 0 mm 1 m/S 760 mmHg 93%
04:00 +26°C° 0 mm 1 m/S 761 mmHg 93%
05:00 +27°C° 0.2 mm 1 m/S 761 mmHg 91%
06:00 +28°C° 0.2 mm 1 m/S 761 mmHg 89%
07:00 +28°C° 0.2 mm 1 m/S 761 mmHg 86%
08:00 +29°C° 0.4 mm 2 m/S 762 mmHg 84%
09:00 +29°C° 0.4 mm 2 m/S 762 mmHg 82%
10:00 +30°C° 0.4 mm 2 m/S 762 mmHg 80%
11:00 +30°C° 1.2 mm 2 m/S 762 mmHg 79%
12:00 +31°C° 1.2 mm 2 m/S 762 mmHg 79%
13:00 +31°C° 1.2 mm 3 m/S 761 mmHg 78%
14:00 +31°C° 0.1 mm 3 m/S 761 mmHg 77%
15:00 +31°C° 0.1 mm 2 m/S 761 mmHg 76%
16:00 +31°C° 0.1 mm 2 m/S 760 mmHg 75%
17:00 +30°C° 0 mm 2 m/S 761 mmHg 79%
18:00 +29°C° 0 mm 2 m/S 761 mmHg 84%
19:00 +28°C° 0 mm 2 m/S 761 mmHg 88%
20:00 +28°C° 0 mm 1 m/S 761 mmHg 90%
21:00 +27°C° 0 mm 1 m/S 762 mmHg 91%
22:00 +27°C° 0 mm 1 m/S 762 mmHg 93%
23:00 +27°C° 0 mm 1 m/S 762 mmHg 93%
Mehr zeigen